Jackson, KY

7:25 AM EDT on September 28, 2016 (GMT -0400)
Carroll

Weather History for KJKL - May, 2013

Change the Weather History Date:

Monday, May 13, 2013

  Actual Average Record
Temperature  
Mean Temperature 50 °F 64 °F  
Max Temperature 62 °F 74 °F 90 °F (1982)
Min Temperature 37 °F 54 °F 37 °F (2013)
Degree Days  
Heating Degree Days 15 4  
Month to date heating degree days 73 56  
Since 1 July heating degree days 4335 4177  
Cooling Degree Days 0 3  
Month to date cooling degree days 6 28  
Year to date cooling degree days 46 74  
Moisture  
Dew Point 31 °F    
Average Humidity 57    
Maximum Humidity 85    
Minimum Humidity 28    
Precipitation  
Precipitation 0.00 in 0.17 in 2.22 in (1995)
Month to date precipitation 3.06 2.09  
Year to date precipitation 19.03 17.40  
Snow  
Snow 0.00 in 0.00 in - ()
Month to date snowfall 0.0 0.0  
Since 1 July snowfall 20.0 23.5  
Snow Depth 0.00 in    
Sea Level Pressure  
Sea Level Pressure 30.16 in    
Wind  
Wind Speed 4 mph (WNW)    
Max Wind Speed 14 mph    
Max Gust Speed 23 mph    
Visibility 9 miles    
Events      
T = Trace of Precipitation, MM = Missing Value Source: NWS Daily Summary

Daily Weather History Graph

Daily Weather History Graph

Search for Another Location

Airport or City:

Trip Planner

Search our weather history database for the weather conditions in past years. The results will help you decide how hot, cold, wet, or windy it might be!

Date:

Astronomy

May. 13, 2013 Rise Set
Actual Time 6:25 AM EDT 8:34 PM EDT
Civil Twilight 5:56 AM EDT 9:03 PM EDT
Nautical Twilight 5:20 AM EDT 9:39 PM EDT
Astronomical Twilight 4:41 AM EDT 10:18 PM EDT
Moon 9:10 AM EDT (5/13) 11:42 PM EDT (5/13)
Length of Visible Light 15h 07m
Length of Day
14h 08m
Waxing Crescent, 12% of the Moon is Illuminated
May 13
Waxing Crescent
May 18
First Quarter
May 25
Full
May 31
Last Quarter
Jun 8
New

Hourly Weather History & Observations

Time (EDT) Temp. Windchill Dew Point Humidity Pressure Visibility Wind Dir Wind Speed Gust Speed Precip Events Conditions
12:53 AM 46.0 °F 44.8 °F 30.9 °F 56% 30.13 in 10.0 mi NW 3.5 mph - N/A   Clear
1:53 AM 43.0 °F 41.3 °F 32.0 °F 65% 30.14 in 10.0 mi West 3.5 mph - N/A   Clear
2:53 AM 42.1 °F - 32.0 °F 67% 30.12 in 10.0 mi Calm Calm - N/A   Clear
3:53 AM 37.9 °F - 33.1 °F 83% 30.13 in 10.0 mi Calm Calm - N/A   Clear
4:53 AM 39.9 °F 37.8 °F 30.9 °F 70% 30.14 in 10.0 mi WSW 3.5 mph - N/A   Partly Cloudy
5:53 AM 37.0 °F - 32.0 °F 82% 30.14 in 10.0 mi Calm Calm - N/A   Clear
6:24 AM 37.4 °F - 32.0 °F 81% 30.14 in 1.2 mi Calm Calm - N/A   Haze
6:31 AM 37.4 °F - 32.0 °F 81% 30.14 in 0.2 mi Calm Calm - N/A   Haze
6:53 AM 37.0 °F - 32.0 °F 82% 30.16 in 0.2 mi Calm Calm - N/A   Haze
7:00 AM 37.4 °F - 33.8 °F 87% 30.15 in 4.0 mi Calm Calm - N/A   Haze
7:53 AM 39.9 °F - 35.1 °F 83% 30.17 in 10.0 mi Calm Calm - N/A   Clear
8:53 AM 44.1 °F - 36.0 °F 73% 30.19 in 10.0 mi Calm Calm - N/A   Clear
9:53 AM 48.9 °F - 36.0 °F 61% 30.21 in 10.0 mi Variable 3.5 mph - N/A   Clear
10:53 AM 54.0 °F - 33.1 °F 45% 30.21 in 10.0 mi Calm Calm - N/A   Clear
11:53 AM 55.0 °F - 28.0 °F 35% 30.21 in 10.0 mi West 8.1 mph - N/A   Mostly Cloudy
12:53 PM 57.0 °F - 30.0 °F 36% 30.19 in 10.0 mi Variable 5.8 mph - N/A   Mostly Cloudy
1:53 PM 57.0 °F - 28.9 °F 34% 30.18 in 10.0 mi WNW 9.2 mph 17.3 mph N/A   Mostly Cloudy
2:53 PM 61.0 °F - 30.0 °F 31% 30.16 in 10.0 mi NW 10.4 mph - N/A   Scattered Clouds
4:53 PM 59.0 °F - 27.0 °F 29% 30.14 in 10.0 mi WNW 11.5 mph 18.4 mph N/A   Mostly Cloudy
5:53 PM 60.1 °F - 28.9 °F 31% 30.14 in 10.0 mi WNW 9.2 mph 20.7 mph N/A   Scattered Clouds
6:53 PM 59.0 °F - 28.9 °F 32% 30.14 in 10.0 mi WNW 8.1 mph - N/A   Clear
7:53 PM 57.2 °F - 28.4 °F 33% 30.14 in 10.0 mi Variable 5.8 mph - N/A   Scattered Clouds
8:53 PM 54.0 °F - 28.9 °F 38% 30.16 in 10.0 mi WNW 4.6 mph - N/A   Clear
9:53 PM 53.1 °F - 28.0 °F 38% 30.18 in 10.0 mi Calm Calm - N/A   Clear
10:53 PM 50.0 °F - 30.0 °F 46% 30.19 in 10.0 mi Calm Calm - N/A   Clear
11:53 PM 51.1 °F - 28.9 °F 43% 30.18 in 10.0 mi Calm Calm - N/A   Clear